Вернуться в каталог

STARLINK-37955

АктивенСвязьSSO
NORAD 69700·PAYLOAD·🇺🇸 United States

Запущен Jun 25, 2026 с Vandenberg Space Force Base

Loading…

Ближайшие Пролёты (ближайшие 24 часа)

TLE

СвежийSource: CelesTrak SupGP

Эпоха: Sep 15, 2026, 04:19 UTC

1 69700C 26145Z   26258.18034722 -.00044028  00000+0 -13666-2 0  2581
2 69700  97.2853 105.0034 0001920  91.2128 255.0706 15.33464220    12

Отслеживайте STARLINK-37955 в реальном времени с AllMySat

Download on the App Store